TimeCST,TemperatureF,Dew PointF,Humidity,Sea Level PressureIn,VisibilityMPH,Wind Direction,Wind SpeedMPH,Gust SpeedMPH,PrecipitationIn,Events,Conditions,WindDirDegrees,DateUTC
1:52 AM,24.1,21.0,88,30.27,3.0,Calm,Calm,-,N/A,,Clear,0,2013-01-03 07:52:00
2:52 AM,23.0,21.0,92,30.29,4.0,Calm,Calm,-,N/A,,Clear,0,2013-01-03 08:52:00
3:52 AM,21.9,19.9,92,30.28,5.0,Calm,Calm,-,N/A,,Clear,0,2013-01-03 09:52:00
4:52 AM,23.0,19.9,88,30.30,6.0,Calm,Calm,-,N/A,,Clear,0,2013-01-03 10:52:00
5:52 AM,21.9,19.0,89,30.32,6.0,Calm,Calm,-,N/A,,Clear,0,2013-01-03 11:52:00
6:52 AM,21.0,19.0,92,30.33,6.0,Calm,Calm,-,N/A,,Clear,0,2013-01-03 12:52:00
7:52 AM,21.0,18.0,88,30.34,4.0,WNW,3.5,-,N/A,,Clear,290,2013-01-03 13:52:00
8:52 AM,27.0,23.0,85,30.35,7.0,Calm,Calm,-,N/A,,Clear,0,2013-01-03 14:52:00
9:52 AM,32.0,21.9,66,30.37,10.0,WNW,4.6,-,N/A,,Clear,300,2013-01-03 15:52:00
10:52 AM,36.0,23.0,59,30.37,10.0,NW,6.9,-,N/A,,Clear,310,2013-01-03 16:52:00
11:52 AM,39.0,21.9,50,30.34,10.0,Variable,4.6,-,N/A,,Clear,0,2013-01-03 17:52:00
12:52 PM,39.9,23.0,51,30.33,10.0,NNW,9.2,-,N/A,,Clear,330,2013-01-03 18:52:00
1:52 PM,42.1,21.0,43,30.34,10.0,NW,11.5,-,N/A,,Clear,320,2013-01-03 19:52:00
2:52 PM,42.1,23.0,47,30.35,10.0,NW,13.8,-,N/A,,Clear,320,2013-01-03 20:52:00
3:52 PM,39.9,26.1,58,30.36,10.0,North,9.2,-,N/A,,Clear,350,2013-01-03 21:52:00
4:52 PM,36.0,25.0,64,30.36,10.0,NW,4.6,-,N/A,,Clear,320,2013-01-03 22:52:00
5:52 PM,34.0,24.1,67,30.38,10.0,Calm,Calm,-,N/A,,Clear,0,2013-01-03 23:52:00
6:52 PM,30.9,24.1,76,30.39,10.0,Calm,Calm,-,N/A,,Clear,0,2013-01-04 00:52:00
7:52 PM,28.0,23.0,81,30.40,10.0,Calm,Calm,-,N/A,,Clear,0,2013-01-04 01:52:00
8:52 PM,27.0,23.0,85,30.43,10.0,Calm,Calm,-,N/A,,Clear,0,2013-01-04 02:52:00
9:52 PM,26.1,21.9,84,30.45,10.0,Calm,Calm,-,N/A,,Clear,0,2013-01-04 03:52:00
10:52 PM,24.1,21.0,88,30.43,10.0,North,3.5,-,N/A,,Clear,350,2013-01-04 04:52:00